Simultaneous Nadir Overpasses (SNOs) Predictions

Prediction of SNOs between AQUA and GOES-15 Satellite Orbit:

Table of predicted SNOs for the next 14.0 days since TLE Epoch: 12/21/2018
Index Date Time (AQUA) AQUA Lat,Lon GOES-15 Lat,Lon Distance(km) Time Diff (sec)
1 12/23/2018 10:07:08 -0.18,-127.92 -0.03,-128.66 84.02 80
2 12/25/2018 09:54:57 -0.80,-124.96 -0.02,-128.64 418.27 80
3 12/25/2018 22:16:21 -0.31,-130.15 0.04,-128.52 185.33 80
4 12/27/2018 22:04:10 0.31,-127.19 0.04,-128.50 148.57 80
5 12/28/2018 10:25:26 0.73,-132.36 -0.05,-128.61 425.95 80
6 12/29/2018 21:51:59 0.93,-124.23 0.04,-128.48 482.41 80
7 12/30/2018 10:13:15 0.11,-129.41 -0.05,-128.59 92.19 80
8 01/01/2019 10:01:04 -0.52,-126.45 -0.05,-128.57 241.35 80
9 01/01/2019 22:22:27 -0.65,-131.63 0.06,-128.44 363.01 80
10 01/03/2019 22:10:16 -0.03,-128.67 0.05,-128.41 30.02 80




NCC Satellite Simultaneous Nadir Overpasses (SNOs) Prediction Service
